Location: Siratepeler Tepesi
(39.1042°N, 32.0781°E)
Time: 05:31:52
(UTC+00:00)

Cosmos 2369 Rocket - Pass Details

Date: 11 April 2026
Orbit: 829 x 850 km, 71.0° (Epoch: 9 May)

Event Time Altitude Azimuth Distance (km) Brightness Sun altitude
Rises 19:33:56 0° 352° (N) 3,380 6.1 -32.5°
Reaches altitude 10° 19:37:27 10° 14° (NNE) 2,441 4.9 -33.0°
Enters shadow 19:39:25 15° 34° (NE) 2,134 4.4 -33.2°
